JF1AJE-13 Weather Reports


time (UTC)temp
C
wind
direction
speed
KPH
gust
KPH
rain 1hr
cm
rain 24hr
cm
rain mn
cm
humidity
%
barometer
mb
20260505150550 15 227 0.0 0.0 0.00 0.00 0.00 47 1018.0
20260505140550 15 200 0.0 0.0 0.00 0.00 0.00 47 1017.9
20260505124551 15 155 0.0 0.0 0.00 0.00 0.00 56 1017.8
20260505122551 16 152 0.0 0.0 0.00 0.00 0.00 56 1017.7
20260505120552 16 182 0.0 0.0 0.00 0.00 0.00 54 1017.8
20260505114603 16 162 0.0 0.0 0.00 0.00 0.00 53 1017.6
20260505112551 16 132 0.0 0.0 0.00 0.00 0.00 51 1017.4
20260505110551 16 162 0.0 0.0 0.00 0.00 0.00 49 1017.3
20260505100550 16 142 0.0 0.0 0.00 0.00 0.00 48 1016.6
20260505094551 16 165 0.0 0.0 0.00 0.00 0.00 49 1016.5
20260505092557 16 163 0.0 0.0 0.00 0.00 0.00 48 1016.2
20260505090552 17 168 0.0 0.0 0.00 0.00 0.00 46 1015.9
20260505084552 17 175 0.0 0.0 0.00 0.00 0.00 43 1015.8
20260505082553 18 180 0.0 0.0 0.00 0.00 0.00 39 1015.5
20260505080553 18 168 0.0 0.0 0.00 0.00 0.00 34 1015.4
20260505064553 21 170 0.0 0.0 0.00 0.00 0.00 28 1014.8
20260505062552 21 134 0.0 3.2 0.00 0.00 0.00 27 1014.6
20260505060553 22 209 0.0 3.2 0.00 0.00 0.00 25 1014.4
20260505054553 23 149 0.0 1.6 0.00 0.00 0.00 24 1014.2
20260505052553 23 103 0.0 1.6 0.00 0.00 0.00 17 1014.2
20260505034553 24 49 0.0 0.0 0.00 0.00 0.00 15 1014.7
20260505032552 23 56 0.0 0.0 0.00 0.00 0.00 15 1014.8
20260505030551 23 52 0.0 0.0 0.00 0.00 0.00 16 1014.7
20260505024553 22 108 0.0 0.0 0.00 0.00 0.00 16 1014.7
20260505022551 22 2 0.0 0.0 0.00 0.00 0.00 17 1014.9
20260505020551 21 336 0.0 0.0 0.00 0.00 0.00 19 1014.9
20260505014552 21 52 0.0 0.0 0.00 0.00 0.00 18 1015.0
20260505012553 20 31 0.0 0.0 0.00 0.00 0.00 18 1014.8
20260505010553 20 31 0.0 0.0 0.00 0.00 0.00 18 1014.8
20260505004553 20 5 0.0 0.0 0.00 0.00 0.00 20 1014.8
20260505002552 19 355 0.0 0.0 0.00 0.00 0.00 19 1014.8
20260505000551 18 350 0.0 0.0 0.00 0.00 0.00 19 1014.8
20260504234553 17 338 0.0 0.0 0.00 0.00 0.00 20 1014.7
20260504232554 17 46 0.0 0.0 0.00 0.00 0.00 23 1015.1
20260504230553 16 333 0.0 0.0 0.00 0.00 0.00 25 1015.2
20260504224554 16 25 0.0 0.0 0.00 0.00 0.00 25 1015.0
20260504222551 16 309 0.0 0.0 0.00 0.00 0.00 27 1015.0
20260504220552 15 309 0.0 0.0 0.00 0.00 0.00 28 1014.6
20260504214551 14 59 0.0 0.0 0.00 0.00 0.00 31 1014.5
20260504212552 13 317 0.0 0.0 0.00 0.00 0.00 32 1014.0
20260504210553 13 313 0.0 0.0 0.00 0.00 0.00 35 1013.6
20260504204551 12 326 0.0 0.0 0.00 0.00 0.00 41 1013.3
20260504202554 12 337 0.0 0.0 0.00 0.00 0.00 41 1012.8
20260504200551 12 331 0.0 0.0 0.00 0.00 0.00 39 1012.3
20260504194551 12 310 0.0 0.0 0.00 0.00 0.00 36 1011.7
20260504192551 12 298 0.0 0.0 0.00 0.00 0.00 37 1011.2
20260504190552 12 323 0.0 0.0 0.00 0.00 0.00 33 1010.8
20260504184552 12 111 0.0 0.0 0.00 0.00 0.00 36 1010.4
20260504182551 12 314 0.0 0.0 0.00 0.00 0.00 40 1009.9
20260504180552 12 309 0.0 0.0 0.00 0.00 0.00 41 1009.3
20260504174553 12 330 0.0 0.0 0.00 0.00 0.00 41 1008.6
20260504172551 12 313 0.0 0.0 0.00 0.00 0.00 43 1008.0
20260504170552 12 346 0.0 0.0 0.00 0.00 0.00 44 1007.5